Hourly Data Report for January 09, 2021

TORONTO CITY
ONTARIO
Current Station Operator: ECCC - MSC

43°40'00.000" N
79°24'00.000" W
112.50 m
6158355
71508
XTO

Download Data

Hourly Data (January 2021)
Hourly Data Report for January 9, 2021
TIME
LST
Temp Definition
°C
Dew Point Definition
°C
Rel Hum Definition
%
Precip. Amount Definition
mm

Wind Dir Definition
10's deg

Wind Spd Definition
km/h
Visibility Definition
km
Stn Press Definition
kPa
Hmdx Definition


Wind Chill Definition


Weather Definition


00:00 -2.2 -9.7 56 0.0       100.65     LegendNANA
01:00 -2.3 -10.7 52 0.0       100.61     LegendNANA
02:00 -1.8 -10.7 50 0.0       100.63     LegendNANA
03:00 -2.1 -10.6 52 0.0       100.63     LegendNANA
04:00 -1.8 -13.2 41 0.0       100.63     LegendNANA
05:00 -2.2 -13.3 42 0.0       100.65     LegendNANA
06:00 -1.5 -12.5 43 0.0       100.66     LegendNANA
07:00 -1.7 -13.0 42 0.0       100.75     LegendNANA
08:00 -1.6 -12.8 42 0.0       100.77     LegendNANA
09:00 -0.8 -13.8 37 0.0       100.84     LegendNANA
10:00 0.0 -14.5 33 0.0       100.87     LegendNANA
11:00 0.5 -13.4 34 0.0       100.87     LegendNANA
12:00 1.0 -14.3 31 0.0       100.79     LegendNANA
13:00 2.9 -13.5 29 0.0       100.71     LegendNANA
14:00 3.6 -11.8 32 0.0       100.70     LegendNANA
15:00 3.2 -12.7 30 0.0       100.71     LegendNANA
16:00 2.9 -11.8 33 0.0       100.75     LegendNANA
17:00 1.5 -8.7 47 0.0       100.80     LegendNANA
18:00 0.4 -7.1 57 0.0       100.82     LegendNANA
19:00 0.3 -6.1 62 0.0       100.83     LegendNANA
20:00 0.2 -5.2 67 0.0       100.83     LegendNANA
21:00 -0.1 -4.7 71 0.0       100.85     LegendNANA
22:00 -0.3 -4.1 75 0.0       100.85     LegendNANA
23:00 -0.6 -4.0 78 0.0       100.86     LegendNANA

Notes on Data Quality.

Legend

  • E = Estimated
  • M = Missing
  • NA = Not Available*
  • [empty] = Indicates an unobserved value
Date modified: